Regional Weather Roundup
Issued by NWS Little Rock, AR

Home | Current Version | Previous Version | Graphics & Text | Print | Product List | Glossary On
Versions: 1 2 3 4 5 6 7 8 9 10 11 12 13 14 15 16 17 18 19 20 21 22 23 24 25 26 27 28 29 30 31 32 33 34 35 36 37 38 39 40 41 42 43 44 45 46 47 48
000
ASUS44 KLZK 281405
RWRLZK

WEATHER ROUNDUP FOR ARKANSAS
NATIONAL WEATHER SERVICE LITTLE ROCK AR
800 AM CST WED JAN 28 2015

NOTE: "FAIR" INDICATES FEW OR NO CLOUDS BELOW 12,000 FEET WITH NO
SIGNIFICANT WEATHER AND/OR OBSTRUCTIONS TO VISIBILITY.

ARZ001-003-010-029-281500-
NORTHWEST ARKANSAS

CITY           SKY/WX    TMP DP  RH WIND       PRES   REMARKS
FAYETTEVILLE   CLEAR     48  35  60 S7        30.10S
FORT SMITH     CLEAR     42  36  79 E9        30.15R
HARRISON       CLEAR     38  34  85 SE13      30.14R
BENTONVILLE    CLEAR     43  30  61 SE6       30.10R
ROGERS         CLEAR     43  34  70 SE7       30.10R
SILOAM SPGS    CLEAR     46  30  53 S8        30.09S
HIGHFILL       CLEAR     46  36  68 S8        30.08S
SPRINGDALE     CLEAR     45  34  65 SE6       30.11S
$$

ARZ004-005-016-281500-
NORTH CENTRAL ARKANSAS

CITY           SKY/WX    TMP DP  RH WIND       PRES   REMARKS
BATESVILLE     CLEAR     34  30  86 SE5       30.26R WCI  30
FLIPPIN        CLEAR     36  30  80 E5        30.19R
MTN HOME       CLEAR     35  31  85 SE9       30.19R FOG     WCI  28
$$

ARZ040-041-281500-
WEST CENTRAL ARKANSAS

CITY           SKY/WX    TMP DP  RH WIND       PRES   REMARKS
MENA           CLEAR     36  34  93 CALM      30.18S
MOUNT IDA      CLEAR     33  30  88 CALM      30.18R
$$

ARZ009-017-025-026-028-281500-
NORTHEAST ARKANSAS

CITY           SKY/WX    TMP DP  RH WIND       PRES   REMARKS
CORNING        FAIR      32  30  93 E7        30.29S WCI  26
JONESBORO      CLEAR     32  30  92 E6        30.28R WCI  26
NEWPORT        CLEAR     35  32  89 SE6       30.29R WCI  30
WALNUT RIDGE   CLEAR     34  27  75 E6        30.28R WCI  29
BLYTHEVILLE    CLEAR     33  28  81 SE5       30.31R WCI  29
$$

ARZ022-023-033-042-044-281500-
CENTRAL ARKANSAS

CITY           SKY/WX    TMP DP  RH WIND       PRES   REMARKS
LITTLE ROCK    PTCLDY    37  33  85 E3        30.26R
N LITTLE ROCK  PTCLDY    38  37  93 E6        30.26R
JACKSONVILLE   CLEAR     32  30  92 E1        30.25R
SEARCY         CLEAR     35  33  92 NE3       30.29R
HOT SPRINGS    CLEAR     42  36  79 E7        30.23R
RUSSELLVILLE   CLEAR     43  35  73 E9        30.21S
$$

ARZ036-281500-
EAST ARKANSAS

CITY           SKY/WX    TMP DP  RH WIND       PRES   REMARKS
WEST MEMPHIS   CLEAR     36  30  79 SE10      30.27F
$$

ARZ050-053-066-070-073-281500-
SOUTHWEST ARKANSAS

CITY           SKY/WX    TMP DP  RH WIND       PRES   REMARKS
ARKADELPHIA    FAIR      40  37  89 VRB3      30.25R
CAMDEN         CLEAR     36  32  87 CALM      30.24R
TEXARKANA      CLEAR     46  37  71 E5        30.18R
EL DORADO      CLEAR     40  36  86 E5        30.22S
DE QUEEN       CLEAR     43  36  76 E6        30.17R
$$

ARZ056-057-069-281500-
SOUTHEAST ARKANSAS

CITY           SKY/WX    TMP DP  RH WIND       PRES   REMARKS
PINE BLUFF     CLEAR     38  34  85 E5        30.26R
STUTTGART      CLEAR     39  34  81 E7        30.27R
MONTICELLO     CLEAR     40  35  83 E5        30.25R

$$





USA.gov is the U.S. government's official web portal to all federal, state and local government web resources and services.